{"data":{"norad_id":61851,"intl_designator":"2024-202G","name":"STARLINK-32379","alt_names":[],"object_type":"PAYLOAD","status":"ACTIVE","operator":null,"country":"US","launch_date":"2024-11-07","launch_site_code":"AFETR","launch_vehicle":null,"mission":null,"orbit_class":"UNKNOWN","rcs_meters":null,"size_class":null,"mass_kg":null,"dimensions":null,"purposes":["comms"],"wikipedia_slug":null,"has_3d_model":false,"image_url":null,"decayed_at":null,"tle_current":{"epoch":"2026-05-25T00:38:46.605984Z","epoch_age_seconds":83451,"freshness":"FRESH","line1":"1 61851U 24202G   26145.02692831  .00001300  00000+0  56777-4 0  9999","line2":"2 61851  43.0008 155.5256 0001457 258.7773 101.2915 15.27577083 87136","mean_motion":15.27577083,"eccentricity":0.0001457,"inclination_deg":43.0008,"raan_deg":155.5256,"arg_perigee_deg":258.7773,"mean_anomaly_deg":101.2915,"bstar":5.6777e-5,"rev_number":8713,"period_min":94.266928721658,"perigee_km":482.05815451412,"apogee_km":484.05750668776,"semimajor_km":6861.1948306009,"source":"CELESTRAK","updated_at":"2026-05-25T13:38:19.450676Z"}}}